| time (UTC) | temp C | wind direction | speed KPH | gust KPH | rain 1hr cm | rain 24hr cm | rain mn cm | humidity % | barometer mb |
| 20260504080111 | 8 | 96 | 0.0 | 0.0 | 0.00 | 0.00 | 0.00 | 61 | 1016.1 |
| 20260504050426 | 7 | 239 | 0.0 | 0.0 | 0.00 | 0.00 | 0.00 | 73 | 1016.8 |
| 20260504045919 | 7 | 240 | 0.0 | 0.0 | 0.00 | 0.00 | 0.00 | 74 | 1016.9 |
| 20260504045414 | 7 | 256 | 0.0 | 0.0 | 0.00 | 0.00 | 0.00 | 74 | 1017.0 |
| 20260504044911 | 7 | 246 | 0.0 | 0.0 | 0.00 | 0.00 | 0.00 | 74 | 1016.8 |
| 20260504044408 | 7 | 246 | 0.0 | 0.0 | 0.00 | 0.00 | 0.00 | 76 | 1017.0 |
| 20260504043906 | 6 | 246 | 0.0 | 0.0 | 0.00 | 0.00 | 0.00 | 75 | 1017.1 |
| 20260504043402 | 6 | 246 | 0.0 | 0.0 | 0.00 | 0.00 | 0.00 | 76 | 1016.9 |
| 20260504042900 | 6 | 261 | 0.0 | 0.0 | 0.00 | 0.00 | 0.00 | 75 | 1017.1 |
| 20260504042356 | 6 | 243 | 0.0 | 0.0 | 0.00 | 0.00 | 0.00 | 75 | 1016.9 |
| 20260504041852 | 6 | 243 | 0.0 | 0.0 | 0.00 | 0.00 | 0.00 | 76 | 1016.8 |
| 20260504041348 | 6 | 238 | 0.0 | 0.0 | 0.00 | 0.00 | 0.00 | 75 | 1016.9 |
| 20260504040845 | 6 | 234 | 0.0 | 0.0 | 0.00 | 0.00 | 0.00 | 73 | 1017.1 |
| 20260504040342 | 6 | 251 | 0.0 | 0.0 | 0.00 | 0.00 | 0.00 | 75 | 1017.1 |
| 20260504035838 | 5 | 253 | 0.0 | 0.0 | 0.00 | 0.00 | 0.00 | 74 | 1016.9 |
| 20260504035337 | 5 | 261 | 0.0 | 0.0 | 0.00 | 0.00 | 0.00 | 76 | 1016.9 |
| 20260504034833 | 5 | 242 | 0.0 | 0.0 | 0.00 | 0.00 | 0.00 | 75 | 1017.1 |
| 20260504034330 | 5 | 242 | 0.0 | 0.0 | 0.00 | 0.00 | 0.00 | 73 | 1017.0 |
| 20260504033827 | 5 | 244 | 0.0 | 0.0 | 0.00 | 0.00 | 0.00 | 75 | 1017.0 |
| 20260504033325 | 5 | 244 | 0.0 | 0.0 | 0.00 | 0.00 | 0.00 | 73 | 1016.9 |
| 20260504032821 | 5 | 216 | 0.0 | 0.0 | 0.00 | 0.00 | 0.00 | 70 | 1017.0 |
| 20260504032319 | 5 | 222 | 0.0 | 0.0 | 0.00 | 0.00 | 0.00 | 71 | 1016.9 |
| 20260504031815 | 5 | 218 | 0.0 | 0.0 | 0.00 | 0.00 | 0.00 | 74 | 1017.0 |
| 20260504031313 | 5 | 218 | 0.0 | 0.0 | 0.00 | 0.00 | 0.00 | 73 | 1017.0 |
| 20260504030809 | 5 | 214 | 0.0 | 0.0 | 0.00 | 0.00 | 0.00 | 71 | 1017.2 |
| 20260504030306 | 6 | 215 | 0.0 | 0.0 | 0.00 | 0.00 | 0.00 | 69 | 1017.1 |
| 20260504025802 | 6 | 171 | 0.0 | 0.0 | 0.00 | 0.00 | 0.00 | 66 | 1017.1 |
| 20260504025259 | 6 | 222 | 0.0 | 0.0 | 0.00 | 0.00 | 0.00 | 68 | 1017.2 |
| 20260504024756 | 6 | 211 | 0.0 | 0.0 | 0.00 | 0.00 | 0.00 | 68 | 1017.2 |
| 20260504024252 | 6 | 169 | 0.0 | 0.0 | 0.00 | 0.00 | 0.00 | 68 | 1017.3 |
| 20260504023749 | 6 | 277 | 0.0 | 0.0 | 0.00 | 0.00 | 0.00 | 68 | 1017.3 |
| 20260504023246 | 6 | 213 | 0.0 | 0.0 | 0.00 | 0.00 | 0.00 | 66 | 1017.2 |
| 20260504022742 | 6 | 213 | 0.0 | 0.0 | 0.00 | 0.00 | 0.00 | 67 | 1017.2 |
| 20260504022238 | 6 | 201 | 0.0 | 0.0 | 0.00 | 0.00 | 0.00 | 67 | 1017.0 |
| 20260504021735 | 6 | 217 | 0.0 | 0.0 | 0.00 | 0.00 | 0.00 | 64 | 1017.1 |
| 20260504021232 | 7 | 236 | 0.0 | 0.0 | 0.00 | 0.00 | 0.00 | 66 | 1017.2 |
| 20260504020729 | 7 | 206 | 0.0 | 0.0 | 0.00 | 0.00 | 0.00 | 63 | 1017.2 |
| 20260504020226 | 7 | 176 | 0.0 | 0.0 | 0.00 | 0.00 | 0.00 | 63 | 1017.2 |
| 20260504015722 | 7 | 201 | 0.0 | 0.0 | 0.00 | 0.00 | 0.00 | 60 | 1017.0 |
| 20260504015219 | 7 | 250 | 0.0 | 0.0 | 0.00 | 0.00 | 0.00 | 63 | 1017.2 |
| 20260504014714 | 7 | 265 | 0.0 | 0.0 | 0.00 | 0.00 | 0.00 | 61 | 1017.1 |
| 20260504014211 | 7 | 250 | 0.0 | 0.0 | 0.00 | 0.00 | 0.00 | 62 | 1017.2 |
| 20260504013709 | 7 | 251 | 0.0 | 0.0 | 0.00 | 0.00 | 0.00 | 61 | 1017.0 |
| 20260504013206 | 8 | 301 | 0.0 | 0.0 | 0.00 | 0.00 | 0.00 | 60 | 1017.2 |
| 20260504012703 | 8 | 262 | 0.0 | 0.0 | 0.00 | 0.00 | 0.00 | 57 | 1017.0 |
| 20260504012201 | 8 | 258 | 1.6 | 3.2 | 0.00 | 0.00 | 0.00 | 59 | 1017.2 |
| 20260504011658 | 8 | 229 | 0.0 | 0.0 | 0.00 | 0.00 | 0.00 | 58 | 1017.1 |
| 20260504011154 | 8 | 243 | 0.0 | 0.0 | 0.00 | 0.00 | 0.00 | 60 | 1017.0 |
| 20260504010650 | 8 | 253 | 0.0 | 0.0 | 0.00 | 0.00 | 0.00 | 59 | 1017.1 |
| 20260504010145 | 8 | 259 | 1.6 | 3.2 | 0.00 | 0.00 | 0.00 | 60 | 1017.1 |
| 20260504005643 | 8 | 317 | 0.0 | 0.0 | 0.00 | 0.00 | 0.00 | 63 | 1017.1 |
| 20260504005139 | 8 | 239 | 0.0 | 0.0 | 0.00 | 0.00 | 0.00 | 59 | 1017.0 |
| 20260504004638 | 8 | 253 | 0.0 | 0.0 | 0.00 | 0.00 | 0.00 | 60 | 1016.9 |
| 20260504004134 | 8 | 232 | 0.0 | 0.0 | 0.00 | 0.00 | 0.00 | 58 | 1017.1 |
| 20260504003631 | 9 | 249 | 0.0 | 0.0 | 0.00 | 0.00 | 0.00 | 59 | 1017.0 |
| 20260504003127 | 10 | 274 | 0.0 | 0.0 | 0.00 | 0.00 | 0.00 | 56 | 1017.0 |
| 20260504002624 | 9 | 243 | 0.0 | 1.6 | 0.00 | 0.00 | 0.00 | 51 | 1016.9 |
| 20260504002122 | 10 | 247 | 0.0 | 0.0 | 0.00 | 0.00 | 0.00 | 57 | 1016.8 |
| 20260504001620 | 10 | 267 | 0.0 | 0.0 | 0.00 | 0.00 | 0.00 | 50 | 1016.8 |
| 20260504001115 | 11 | 241 | 1.6 | 3.2 | 0.00 | 0.00 | 0.00 | 51 | 1016.6 |
| 20260504000613 | 11 | 214 | 0.0 | 3.2 | 0.00 | 0.00 | 0.00 | 44 | 1016.8 |
| 20260504000110 | 11 | 326 | 0.0 | 0.0 | 0.00 | 0.00 | 0.00 | 52 | 1016.9 |
| 20260503235608 | 12 | 230 | 0.0 | 1.6 | 0.00 | 0.00 | 0.00 | 40 | 1016.8 |
| 20260503235105 | 12 | 224 | 0.0 | 1.6 | 0.00 | 0.00 | 0.00 | 40 | 1016.8 |
| 20260503234603 | 12 | 306 | 1.6 | 1.6 | 0.00 | 0.00 | 0.00 | 39 | 1016.8 |
| 20260503234100 | 12 | 225 | 1.6 | 3.2 | 0.00 | 0.00 | 0.00 | 40 | 1016.9 |
| 20260503233557 | 12 | 264 | 0.0 | 0.0 | 0.00 | 0.00 | 0.00 | 42 | 1016.9 |
| 20260503233053 | 12 | 277 | 0.0 | 3.2 | 0.00 | 0.00 | 0.00 | 40 | 1016.8 |
| 20260503232550 | 13 | 258 | 0.0 | 0.0 | 0.00 | 0.00 | 0.00 | 41 | 1017.0 |
| 20260503232047 | 13 | 81 | 3.2 | 4.8 | 0.00 | 0.00 | 0.00 | 41 | 1016.6 |
| 20260503231545 | 13 | 324 | 3.2 | 4.8 | 0.00 | 0.00 | 0.00 | 39 | 1016.9 |
| 20260503231041 | 13 | 296 | 6.4 | 9.7 | 0.00 | 0.00 | 0.00 | 39 | 1016.6 |
| 20260503230538 | 14 | 322 | 8.0 | 11.3 | 0.00 | 0.00 | 0.00 | 35 | 1016.6 |
| 20260503230036 | 14 | 305 | 6.4 | 9.7 | 0.00 | 0.00 | 0.00 | 37 | 1016.9 |
| 20260503225532 | 14 | 277 | 1.6 | 6.4 | 0.00 | 0.00 | 0.00 | 36 | 1016.8 |
| 20260503225027 | 14 | 249 | 4.8 | 9.7 | 0.00 | 0.00 | 0.00 | 37 | 1016.6 |
| 20260503224525 | 15 | 287 | 0.0 | 4.8 | 0.00 | 0.00 | 0.00 | 35 | 1016.9 |
| 20260503224023 | 15 | 233 | 1.6 | 12.9 | 0.00 | 0.00 | 0.00 | 34 | 1016.8 |
| 20260503223520 | 14 | 283 | 0.0 | 9.7 | 0.00 | 0.00 | 0.00 | 35 | 1016.8 |
| 20260503223016 | 15 | 303 | 11.3 | 16.1 | 0.00 | 0.00 | 0.00 | 33 | 1017.0 |
| 20260503222514 | 15 | 353 | 6.4 | 12.9 | 0.00 | 0.00 | 0.00 | 35 | 1017.0 |
| 20260503222012 | 15 | 320 | 3.2 | 11.3 | 0.00 | 0.00 | 0.00 | 36 | 1017.0 |
| 20260503221510 | 15 | 291 | 4.8 | 11.3 | 0.00 | 0.00 | 0.00 | 33 | 1017.1 |
| 20260503221007 | 15 | 315 | 4.8 | 16.1 | 0.00 | 0.00 | 0.00 | 35 | 1017.1 |
| 20260503220503 | 15 | 300 | 3.2 | 4.8 | 0.00 | 0.00 | 0.00 | 38 | 1017.0 |
| 20260503220000 | 15 | 352 | 6.4 | 11.3 | 0.00 | 0.00 | 0.00 | 34 | 1017.1 |
| 20260503215457 | 15 | 320 | 1.6 | 6.4 | 0.00 | 0.00 | 0.00 | 37 | 1017.0 |
| 20260503214954 | 15 | 311 | 11.3 | 16.1 | 0.00 | 0.00 | 0.00 | 34 | 1017.1 |
| 20260503214452 | 15 | 312 | 12.9 | 14.5 | 0.00 | 0.00 | 0.00 | 37 | 1017.0 |
| 20260503213949 | 15 | 326 | 11.3 | 14.5 | 0.00 | 0.00 | 0.00 | 37 | 1017.0 |
| 20260503213448 | 16 | 327 | 6.4 | 6.4 | 0.00 | 0.00 | 0.00 | 35 | 1016.6 |
| 20260503212943 | 15 | 342 | 8.0 | 11.3 | 0.00 | 0.00 | 0.00 | 35 | 1016.5 |
| 20260503212441 | 15 | 264 | 9.7 | 17.7 | 0.00 | 0.00 | 0.00 | 34 | 1016.6 |
| 20260503211938 | 15 | 353 | 4.8 | 6.4 | 0.00 | 0.00 | 0.00 | 36 | 1016.9 |
| 20260503211435 | 14 | 350 | 6.4 | 16.1 | 0.00 | 0.00 | 0.00 | 36 | 1017.0 |
| 20260503210931 | 15 | 316 | 8.0 | 16.1 | 0.00 | 0.00 | 0.00 | 36 | 1016.8 |
| 20260503210428 | 15 | 322 | 16.1 | 25.7 | 0.00 | 0.00 | 0.00 | 37 | 1016.8 |
| 20260503205928 | 15 | 320 | 3.2 | 11.3 | 0.00 | 0.00 | 0.00 | 37 | 1017.1 |
| 20260503205425 | 13 | 305 | 4.8 | 6.4 | 0.00 | 0.00 | 0.00 | 37 | 1017.2 |
| 20260503204921 | 13 | 321 | 8.0 | 16.1 | 0.00 | 0.00 | 0.00 | 39 | 1017.1 |
| 20260503204418 | 15 | 313 | 8.0 | 17.7 | 0.00 | 0.00 | 0.00 | 39 | 1017.2 |
| 20260503203915 | 15 | 334 | 12.9 | 25.7 | 0.00 | 0.00 | 0.00 | 39 | 1017.1 |
| 20260503203413 | 15 | 313 | 9.7 | 14.5 | 0.00 | 0.00 | 0.00 | 36 | 1017.0 |
| 20260503202909 | 14 | 286 | 1.6 | 9.7 | 0.00 | 0.00 | 0.00 | 37 | 1017.2 |
| 20260503202408 | 14 | 308 | 9.7 | 11.3 | 0.00 | 0.00 | 0.00 | 40 | 1017.4 |
| 20260503201906 | 14 | 288 | 3.2 | 6.4 | 0.00 | 0.00 | 0.00 | 37 | 1017.5 |
| 20260503201403 | 15 | 318 | 11.3 | 17.7 | 0.00 | 0.00 | 0.00 | 37 | 1017.3 |
| 20260503200900 | 15 | 320 | 11.3 | 22.5 | 0.00 | 0.00 | 0.00 | 35 | 1017.4 |
| 20260503200356 | 15 | 322 | 9.7 | 16.1 | 0.00 | 0.00 | 0.00 | 35 | 1017.4 |
| 20260503195853 | 15 | 27 | 0.0 | 3.2 | 0.00 | 0.00 | 0.00 | 36 | 1017.4 |
| 20260503195349 | 15 | 275 | 11.3 | 16.1 | 0.00 | 0.00 | 0.00 | 36 | 1017.9 |
| 20260503194847 | 15 | 303 | 9.7 | 17.7 | 0.00 | 0.00 | 0.00 | 39 | 1018.0 |
| 20260503194343 | 14 | 315 | 8.0 | 11.3 | 0.00 | 0.00 | 0.00 | 37 | 1018.1 |
| 20260503193839 | 14 | 328 | 12.9 | 20.9 | 0.00 | 0.00 | 0.00 | 38 | 1017.9 |
| 20260503193335 | 13 | 309 | 3.2 | 9.7 | 0.00 | 0.00 | 0.00 | 37 | 1018.1 |
| 20260503192831 | 13 | 327 | 8.0 | 12.9 | 0.00 | 0.00 | 0.00 | 39 | 1018.3 |
| 20260503192327 | 14 | 312 | 16.1 | 20.9 | 0.00 | 0.00 | 0.00 | 36 | 1018.4 |
| 20260503191823 | 13 | 313 | 4.8 | 16.1 | 0.00 | 0.00 | 0.00 | 38 | 1018.5 |
| 20260503191320 | 13 | 192 | 12.9 | 17.7 | 0.00 | 0.00 | 0.00 | 36 | 1018.2 |
| 20260503190817 | 13 | 333 | 14.5 | 27.4 | 0.00 | 0.00 | 0.00 | 38 | 1018.5 |
| 20260503190314 | 13 | 309 | 4.8 | 9.7 | 0.00 | 0.00 | 0.00 | 36 | 1018.6 |
| 20260503185811 | 13 | 288 | 3.2 | 22.5 | 0.00 | 0.00 | 0.00 | 36 | 1018.6 |
| 20260503185307 | 13 | 241 | 3.2 | 11.3 | 0.00 | 0.00 | 0.00 | 35 | 1018.5 |
| 20260503184802 | 14 | 322 | 17.7 | 29.0 | 0.00 | 0.00 | 0.00 | 35 | 1018.6 |
| 20260503184258 | 13 | 303 | 8.0 | 17.7 | 0.00 | 0.00 | 0.00 | 38 | 1018.9 |
| 20260503183754 | 13 | 274 | 9.7 | 12.9 | 0.00 | 0.00 | 0.00 | 36 | 1018.7 |
| 20260503183252 | 13 | 333 | 3.2 | 14.5 | 0.00 | 0.00 | 0.00 | 36 | 1018.6 |
| 20260503182749 | 13 | 313 | 4.8 | 24.1 | 0.00 | 0.00 | 0.00 | 36 | 1019.0 |
| 20260503182248 | 13 | 221 | 8.0 | 11.3 | 0.00 | 0.00 | 0.00 | 38 | 1018.8 |
| 20260503181745 | 13 | 289 | 6.4 | 20.9 | 0.00 | 0.00 | 0.00 | 37 | 1019.0 |
| 20260503181242 | 13 | 340 | 4.8 | 14.5 | 0.00 | 0.00 | 0.00 | 38 | 1019.1 |
| 20260503180738 | 12 | 93 | 4.8 | 6.4 | 0.00 | 0.00 | 0.00 | 38 | 1019.0 |
| 20260503180236 | 13 | 82 | 1.6 | 6.4 | 0.00 | 0.00 | 0.00 | 36 | 1019.1 |
| 20260503175732 | 12 | 98 | 3.2 | 14.5 | 0.00 | 0.00 | 0.00 | 40 | 1019.2 |
| 20260503175230 | 12 | 307 | 1.6 | 6.4 | 0.00 | 0.00 | 0.00 | 42 | 1019.2 |
| 20260503174726 | 12 | 279 | 8.0 | 14.5 | 0.00 | 0.00 | 0.00 | 39 | 1019.2 |
| 20260503174224 | 12 | 286 | 6.4 | 17.7 | 0.00 | 0.00 | 0.00 | 40 | 1019.3 |
| 20260503173719 | 13 | 287 | 12.9 | 16.1 | 0.00 | 0.00 | 0.00 | 40 | 1019.4 |
| 20260503173215 | 13 | 287 | 4.8 | 9.7 | 0.00 | 0.00 | 0.00 | 39 | 1019.6 |
| 20260503172712 | 12 | 27 | 4.8 | 4.8 | 0.00 | 0.00 | 0.00 | 36 | 1019.6 |
| 20260503172209 | 12 | 55 | 8.0 | 14.5 | 0.00 | 0.00 | 0.00 | 42 | 1019.8 |
| 20260503171705 | 12 | 307 | 8.0 | 16.1 | 0.00 | 0.00 | 0.00 | 42 | 1019.8 |
| 20260503171203 | 12 | 309 | 6.4 | 17.7 | 0.00 | 0.00 | 0.00 | 43 | 1019.7 |
| 20260503170700 | 12 | 264 | 9.7 | 16.1 | 0.00 | 0.00 | 0.00 | 36 | 1019.7 |
| 20260503170157 | 12 | 297 | 12.9 | 17.7 | 0.00 | 0.00 | 0.00 | 36 | 1020.1 |
| 20260503160124 | 11 | 282 | 6.4 | 6.4 | 0.00 | 0.00 | 0.00 | 43 | 1020.6 |
| 20260503150553 | 9 | 77 | 1.6 | 16.1 | 0.00 | 0.00 | 0.00 | 47 | 1020.3 |
| 20260503130943 | 5 | 237 | 9.7 | 12.9 | 0.00 | 0.00 | 0.00 | 64 | 1020.6 |
| 20260503130441 | 5 | 2 | 4.8 | 11.3 | 0.00 | 0.00 | 0.00 | 65 | 1020.8 |
| 20260503110332 | 1 | 230 | 0.0 | 0.0 | 0.00 | 0.00 | 0.00 | 83 | 1020.2 |
| 20260503100258 | 1 | 286 | 0.0 | 0.0 | 0.00 | 0.00 | 0.00 | 82 | 1019.8 |
| 20260503090218 | 1 | 232 | 0.0 | 0.0 | 0.00 | 0.00 | 0.00 | 87 | 1019.7 |
| 20260503081150 | 1 | 250 | 0.0 | 0.0 | 0.00 | 0.00 | 0.00 | 82 | 1019.3 |
| 20260503080646 | 1 | 243 | 1.6 | 3.2 | 0.00 | 0.00 | 0.00 | 84 | 1019.4 |